METEOSAT-11 (MSG-4)

Last updated on Fri Jul 10 2026 00:02:44 GMT+0000 (Coordinated Universal Time)

1 40732U 15034A 26190.28553157 .00000072 00000+0 00000+0 0 9990 2 40732 3.2552 70.9728 0002251 351.7672 336.5353 1.00270014 7436
UTC large
Height (km)
Speed (km/s)
/
Latitude / Longitude
Inclination (degrees)
Orbital Period (minutes)
Azimuth
Elevation
Range (km)
Doppler Factor

Next 0 passes for location: London (51.5072 / 0.1276)

No passes found over London.
METEOSAT-11 (MSG-4)